{"data":{"norad_id":54695,"intl_designator":"2022-167P","name":"JILIN-1 GAOFEN 03D48","alt_names":[],"object_type":"PAYLOAD","status":"ACTIVE","operator":null,"country":"PRC","launch_date":"2022-12-09","launch_site_code":"SEAL","launch_vehicle":null,"mission":null,"orbit_class":"UNKNOWN","rcs_meters":null,"size_class":null,"mass_kg":null,"dimensions":null,"purposes":[],"wikipedia_slug":null,"has_3d_model":false,"image_url":null,"decayed_at":null,"tle_current":{"epoch":"2026-05-25T04:29:35.979072Z","epoch_age_seconds":62894,"freshness":"FRESH","line1":"1 54695U 22167P   26145.18722198  .00010572  00000+0  31707-3 0  9998","line2":"2 54695  97.6865 313.7344 0006431 187.2636 172.8514 15.34652697191865","mean_motion":15.34652697,"eccentricity":0.0006431,"inclination_deg":97.6865,"raan_deg":313.7344,"arg_perigee_deg":187.2636,"mean_anomaly_deg":172.8514,"bstar":0.00031707,"rev_number":19186,"period_min":93.832305043022,"perigee_km":457.55341311865,"apogee_km":466.35113594356,"semimajor_km":6840.0892745311,"source":"CELESTRAK","updated_at":"2026-05-25T13:37:58.710485Z"}}}